Location: Limerick
(52.6800°N, 8.6400°W)
Time: 07:51:35
(UTC+01:00)

ISS - All Passes

Search period start: 28 September 2016 00:00
Search period end: 08 October 2016 00:00
Orbit: 400 x 410 km, 51.6° (Epoch: 28 September)

Date Brightness Start Highest point End Pass type
(mag) Time Alt. Az. Time Alt. Az. Time Alt. Az.
28 Sep - 01:09:46 10° W 01:13:03 73° S 01:16:20 10° E night (unlit)
28 Sep - 02:46:17 10° W 02:49:19 34° SSW 02:52:21 10° SE night (unlit)
28 Sep - 21:07:06 10° S 21:08:45 13° SE 21:10:26 10° ESE visible
28 Sep - 22:41:32 10° SW 22:44:39 44° SSE 22:47:48 10° E night (unlit)
29 Sep - 00:17:44 10° W 00:21:00 76° S 00:24:17 10° E night (unlit)
29 Sep - 01:54:11 10° W 01:57:21 46° SSW 02:00:32 10° SE night (unlit)
29 Sep - 03:31:25 10° WSW 03:33:18 14° SW 03:35:10 10° S night (unlit)
29 Sep - 21:49:44 10° SW 21:52:41 32° SSE 21:55:40 10° E visible
29 Sep - 23:25:41 10° WSW 23:28:56 72° S 23:32:13 10° E night (unlit)
30 Sep - 01:02:06 10° W 01:05:21 59° SSW 01:08:35 10° ESE night (unlit)
30 Sep - 02:38:52 10° W 02:41:26 21° SSW 02:44:01 10° SSE night (unlit)
30 Sep - 20:58:08 10° SSW 21:00:46 23° SSE 21:03:25 10° E visible
30 Sep - 22:33:39 10° WSW 22:36:54 62° SSE 22:40:08 10° E visible
01 Oct - 00:10:01 10° W 00:13:17 70° S 00:16:34 10° ESE night (unlit)
01 Oct - 01:46:35 10° W 01:49:32 30° SSW 01:52:27 10° SE night (unlit)
01 Oct - 20:06:51 10° S 20:08:53 16° SE 20:10:55 10° ESE visible
01 Oct - 21:41:40 10° WSW 21:44:51 49° SSE 21:48:02 10° E visible
01 Oct - 23:17:57 10° W 23:21:12 75° S 23:24:29 10° E night (unlit)
02 Oct - 00:54:25 10° W 00:57:32 41° SSW 01:00:40 10° SE night (unlit)
02 Oct - 02:31:59 10° WSW 02:33:24 12° SW 02:34:48 10° SSW night (unlit)
02 Oct - 20:49:47 10° SW 20:52:49 36° SSE 20:55:53 10° E visible
02 Oct - 22:25:51 10° W 22:29:07 74° S 22:32:23 10° E visible
03 Oct - 00:02:17 10° W 00:05:29 54° SSW 00:08:43 10° ESE night (unlit)
03 Oct - 01:39:10 10° W 01:41:32 18° SW 01:43:53 10° SSE night (unlit)
03 Oct - 19:58:04 10° SSW 20:00:50 26° SSE 20:03:38 10° E visible
03 Oct - 21:33:46 10° WSW 21:37:01 66° S 21:40:16 10° E visible
03 Oct - 23:10:10 10° W 23:13:25 66° S 23:16:41 10° ESE visible
04 Oct - 00:46:47 10° W 00:49:36 26° SSW 00:52:24 10° SSE night (unlit)
04 Oct - 19:06:36 10° S 19:08:54 18° SE 19:11:12 10° E daylight
04 Oct - 20:41:44 10° WSW 20:44:55 54° SSE 20:48:08 10° E visible
04 Oct - 22:18:03 10° W 22:21:18 74° S 22:24:35 10° E visible
04 Oct - 23:54:32 10° W 23:57:35 37° SSW 00:00:39 10° SE night (unlit)
05 Oct - 01:32:53 10° SW 01:33:23 10° SW 01:33:53 10° SSW night (unlit)
05 Oct - 18:15:43 10° SSE 18:17:00 12° SE 18:18:18 10° ESE daylight
05 Oct - 19:49:45 10° SW 19:52:51 41° SSE 19:55:58 10° E visible
05 Oct - 21:25:54 10° W 21:29:10 75° S 21:32:27 10° E visible
05 Oct - 23:02:21 10° W 23:05:32 49° SSW 23:08:43 10° ESE visible
06 Oct - 00:39:25 10° WSW 00:41:30 16° SW 00:43:35 10° S night (unlit)
06 Oct - 18:57:55 10° SW 19:00:49 29° SSE 19:03:43 10° E daylight
06 Oct - 20:33:46 10° WSW 20:37:01 70° S 20:40:17 10° E visible
06 Oct - 22:10:11 10° W 22:13:25 62° SSW 22:16:40 10° ESE visible
06 Oct - 23:46:52 10° W 23:49:33 23° SSW 23:52:13 10° SSE night (unlit)
07 Oct - 18:06:18 10° SSW 18:08:48 21° SSE 18:11:20 10° E daylight
07 Oct - 19:41:40 10° WSW 19:44:53 59° SSE 19:48:07 10° E visible
07 Oct - 21:18:02 10° W 21:21:17 72° S 21:24:33 10° ESE visible
07 Oct - 22:54:33 10° W 22:57:32 33° SSW 23:00:30 10° SE visible
